Weather History for Nashua, NH

Change the Weather History Date:

Wednesday, February 13, 2013

  Actual Average Record
Temperature  
Mean Temperature 31 °F -  
Max Temperature 39 °F 35 °F 58 °F (1984)
Min Temperature 23 °F 11 °F -19 °F (1967)
Degree Days  
Heating Degree Days 34    
Moisture  
Dew Point 21 °F    
Average Humidity 63    
Maximum Humidity 82    
Minimum Humidity 43    
Precipitation  
Precipitation 0.00 in - - ()
Sea Level Pressure  
Sea Level Pressure 30.55 in    
Wind  
Wind Speed 5 mph (NW)    
Max Wind Speed 8 mph    
Max Gust Speed -    
Visibility 10 miles    
Events      
Averages and records for this station are not official NWS values.
T = Trace of Precipitation, MM = Missing Value Source: NWS Daily Summary

Daily Weather History Graph

Daily Weather History Graph

Search for Another Location

Airport:

Trip Planner

Search our weather history database for the weather conditions in past years. The results will help you decide how hot, cold, wet, or windy it might be!

Date:

Astronomy

Feb. 13, 2013 Rise Set
Actual Time 6:45 AM EST 5:15 PM EST
Civil Twilight 6:16 AM EST 5:44 PM EST
Nautical Twilight 5:43 AM EST 6:17 PM EST
Astronomical Twilight 5:10 AM EST 6:50 PM EST
Moon 8:06 AM EST (2/13) 9:22 PM EST (2/13)
Length of Visible Light 11h 28m
Length of Day
10h 29m
Waxing Crescent, 13% of the Moon is Illuminated
Feb 13
Waxing Crescent
Feb 17
First Quarter
Feb 25
Full
Mar 4
Last Quarter
Mar 11
New

Hourly Weather History & Observations

Time (EST) Temp. Windchill Dew Point Humidity Pressure Visibility Wind Dir Wind Speed Gust Speed Precip Events Conditions
12:51 AM 36.0 °F 29.6 °F 23.0 °F 59% 30.59 in 10.0 mi WNW 8.1 mph - N/A   Overcast
1:51 AM 34.9 °F 29.0 °F 22.1 °F 60% 30.58 in 10.0 mi West 6.9 mph - N/A   Overcast
2:51 AM 32.9 °F 26.7 °F 22.1 °F 65% 30.57 in 10.0 mi West 6.9 mph - N/A   Partly Cloudy
3:51 AM 32.0 °F 24.8 °F 21.0 °F 64% 30.59 in 10.0 mi West 8.1 mph - N/A   Clear
4:51 AM 31.1 °F 25.4 °F 21.0 °F 66% 30.60 in 10.0 mi West 5.8 mph - N/A   Clear
5:51 AM 25.2 °F - 19.0 °F 78% 30.60 in 10.0 mi Calm Calm - N/A   Clear
6:51 AM 23.0 °F - 18.1 °F 82% 30.61 in 10.0 mi Calm Calm - N/A   Clear
7:51 AM 26.1 °F - 20.1 °F 78% 30.62 in 10.0 mi Calm Calm - N/A   Clear
8:51 AM 32.9 °F 28.5 °F 21.0 °F 62% 30.61 in 10.0 mi NW 4.6 mph - N/A   Clear
9:51 AM 36.9 °F 31.4 °F 21.0 °F 53% 30.60 in 10.0 mi NW 6.9 mph - N/A   Clear
10:51 AM 37.9 °F 32.7 °F 22.1 °F 53% 30.58 in 10.0 mi NNW 6.9 mph - N/A   Scattered Clouds
11:51 AM 38.8 °F 34.6 °F 21.0 °F 49% 30.57 in 10.0 mi NW 5.8 mph - N/A   Mostly Cloudy
12:51 PM 38.8 °F 34.6 °F 21.0 °F 49% 30.56 in 10.0 mi NW 5.8 mph - N/A   Mostly Cloudy
1:51 PM 39.9 °F - 20.1 °F 45% 30.54 in 10.0 mi Calm Calm - N/A   Mostly Cloudy
2:51 PM 39.9 °F 36.7 °F 19.0 °F 43% 30.52 in 10.0 mi Variable 4.6 mph - N/A   Partly Cloudy
3:51 PM 39.9 °F 35.1 °F 21.0 °F 47% 30.50 in 10.0 mi NNW 6.9 mph - N/A   Scattered Clouds
4:51 PM 38.8 °F 35.4 °F 20.1 °F 47% 30.51 in 10.0 mi West 4.6 mph - N/A   Partly Cloudy
5:51 PM 32.9 °F - 22.1 °F 65% 30.50 in 10.0 mi Calm Calm - N/A   Clear
6:51 PM 30.0 °F - 22.1 °F 72% 30.52 in 10.0 mi Calm Calm - N/A   Clear
7:51 PM 29.1 °F - 22.1 °F 75% 30.51 in 10.0 mi Calm Calm - N/A   Clear
8:51 PM 28.0 °F 22.8 °F 21.0 °F 75% 30.52 in 10.0 mi NNW 4.6 mph - N/A   Clear
9:51 PM 29.1 °F 25.4 °F 21.0 °F 72% 30.50 in 10.0 mi NW 3.5 mph - N/A   Clear
10:51 PM 29.1 °F 25.4 °F 21.0 °F 72% 30.49 in 10.0 mi NNW 3.5 mph - N/A   Clear
11:51 PM 29.1 °F 25.4 °F 21.0 °F 72% 30.49 in 10.0 mi NW 3.5 mph - N/A   Clear